# Tabular Observed and Forecast Hydrograph Information
#
# Location: Walker River - Wabuska (WALN2)
#
# File Generation Time: 05/06/2026 at 07:41 AM PDT
# Data Interval: 1 Hour
#
# Most Recent Date & Time of Maximum Observed: 05/06/2026 at 07:00 AM PDT
# Maximum Observed Stage: 4.04 Feet
# Maximum Observed Flow: 106 cfs
#
# Earliest Date & Time of Maximum Forecast: 05/11/2026 at 01:00 AM PDT
# Maximum Forecast Stage: 4.42 Feet
# Maximum Forecast Flow: 146 cfs
#
# OBSERVED
#
# Date & Time (Local) Stage (Feet) Flow (cfs) Trend Observed Status
# ---------------------------------------------------------------------------------
05/01/2026 07 AM PDT 3.59 68 Normal
05/01/2026 08 AM PDT 3.59 68 0 Normal
05/01/2026 09 AM PDT 3.59 68 0 Normal
05/01/2026 10 AM PDT 3.59 68 0 Normal
05/01/2026 11 AM PDT 3.60 68 + Normal
05/01/2026 12 PM PDT 3.60 68 0 Normal
05/01/2026 01 PM PDT 3.60 68 0 Normal
05/01/2026 02 PM PDT 3.60 68 0 Normal
05/01/2026 03 PM PDT 3.59 68 - Normal
05/01/2026 04 PM PDT 3.59 68 0 Normal
05/01/2026 05 PM PDT 3.59 68 0 Normal
05/01/2026 06 PM PDT 3.59 68 0 Normal
05/01/2026 07 PM PDT 3.58 67 - Normal
05/01/2026 08 PM PDT 3.58 67 0 Normal
05/01/2026 09 PM PDT 3.57 66 - Normal
05/01/2026 10 PM PDT 3.58 67 + Normal
05/01/2026 11 PM PDT 3.57 66 - Normal
05/02/2026 12 AM PDT 3.57 66 0 Normal
05/02/2026 01 AM PDT 3.57 66 0 Normal
05/02/2026 02 AM PDT 3.54 64 - Normal
05/02/2026 03 AM PDT 3.55 65 + Normal
05/02/2026 04 AM PDT 3.55 65 0 Normal
05/02/2026 05 AM PDT 3.54 64 - Normal
05/02/2026 06 AM PDT 3.54 64 0 Normal
05/02/2026 07 AM PDT 3.53 63 - Normal
05/02/2026 08 AM PDT 3.53 63 0 Normal
05/02/2026 09 AM PDT 3.53 63 0 Normal
05/02/2026 10 AM PDT 3.52 62 - Normal
05/02/2026 11 AM PDT 3.52 62 0 Normal
05/02/2026 12 PM PDT 3.53 63 + Normal
05/02/2026 01 PM PDT 3.52 62 - Normal
05/02/2026 02 PM PDT 3.52 62 0 Normal
05/02/2026 03 PM PDT 3.53 63 + Normal
05/02/2026 04 PM PDT 3.52 62 - Normal
05/02/2026 05 PM PDT 3.52 62 0 Normal
05/02/2026 06 PM PDT 3.53 63 + Normal
05/02/2026 07 PM PDT 3.52 62 - Normal
05/02/2026 08 PM PDT 3.53 63 + Normal
05/02/2026 09 PM PDT 3.56 65 + Normal
05/02/2026 10 PM PDT 3.57 66 + Normal
05/02/2026 11 PM PDT 3.58 67 + Normal
05/03/2026 12 AM PDT 3.60 68 + Normal
05/03/2026 01 AM PDT 3.60 68 0 Normal
05/03/2026 02 AM PDT 3.60 68 0 Normal
05/03/2026 03 AM PDT 3.59 68 - Normal
05/03/2026 04 AM PDT 3.59 68 0 Normal
05/03/2026 05 AM PDT 3.57 66 - Normal
05/03/2026 06 AM PDT 3.55 65 - Normal
05/03/2026 07 AM PDT 3.54 64 - Normal
05/03/2026 08 AM PDT 3.52 62 - Normal
05/03/2026 09 AM PDT 3.51 62 - Normal
05/03/2026 10 AM PDT 3.49 60 - Normal
05/03/2026 11 AM PDT 3.49 60 0 Normal
05/03/2026 12 PM PDT 3.48 60 - Normal
05/03/2026 01 PM PDT 3.47 59 - Normal
05/03/2026 02 PM PDT 3.46 58 - Normal
05/03/2026 03 PM PDT 3.43 56 - Normal
05/03/2026 04 PM PDT 3.44 57 + Normal
05/03/2026 05 PM PDT 3.44 57 0 Normal
05/03/2026 06 PM PDT 3.44 57 0 Normal
05/03/2026 07 PM PDT 3.44 57 0 Normal
05/03/2026 08 PM PDT 3.44 57 0 Normal
05/03/2026 09 PM PDT 3.45 57 + Normal
05/03/2026 10 PM PDT 3.46 58 + Normal
05/03/2026 11 PM PDT 3.47 59 + Normal
05/04/2026 12 AM PDT 3.47 59 0 Normal
05/04/2026 01 AM PDT 3.49 60 + Normal
05/04/2026 02 AM PDT 3.51 62 + Normal
05/04/2026 03 AM PDT 3.51 62 0 Normal
05/04/2026 04 AM PDT 3.53 63 + Normal
05/04/2026 05 AM PDT 3.55 65 + Normal
05/04/2026 06 AM PDT 3.57 66 + Normal
05/04/2026 07 AM PDT 3.58 67 + Normal
05/04/2026 08 AM PDT 3.58 67 0 Normal
05/04/2026 09 AM PDT 3.59 68 + Normal
05/04/2026 10 AM PDT 3.59 68 0 Normal
05/04/2026 11 AM PDT 3.60 68 + Normal
05/04/2026 12 PM PDT 3.61 69 + Normal
05/04/2026 01 PM PDT 3.70 76 + Normal
05/04/2026 02 PM PDT 3.64 72 - Normal
05/04/2026 03 PM PDT 3.63 71 - Normal
05/04/2026 04 PM PDT 3.62 70 - Normal
05/04/2026 05 PM PDT 3.63 71 + Normal
05/04/2026 06 PM PDT 3.63 71 0 Normal
05/04/2026 07 PM PDT 3.62 70 - Normal
05/04/2026 08 PM PDT 3.61 69 - Normal
05/04/2026 09 PM PDT 3.63 71 + Normal
05/04/2026 10 PM PDT 3.61 69 - Normal
05/04/2026 11 PM PDT 3.61 69 0 Normal
05/05/2026 12 AM PDT 3.61 69 0 Normal
05/05/2026 01 AM PDT 3.61 69 0 Normal
05/05/2026 02 AM PDT 3.60 68 - Normal
05/05/2026 03 AM PDT 3.61 69 + Normal
05/05/2026 04 AM PDT 3.61 69 0 Normal
05/05/2026 05 AM PDT 3.63 71 + Normal
05/05/2026 06 AM PDT 3.63 71 0 Normal
05/05/2026 07 AM PDT 3.65 72 + Normal
05/05/2026 08 AM PDT 3.65 72 0 Normal
05/05/2026 09 AM PDT 3.65 72 0 Normal
05/05/2026 10 AM PDT 3.63 71 - Normal
05/05/2026 11 AM PDT 3.63 71 0 Normal
05/05/2026 12 PM PDT 3.63 71 0 Normal
05/05/2026 01 PM PDT 3.63 71 0 Normal
05/05/2026 02 PM PDT 3.63 71 0 Normal
05/05/2026 03 PM PDT 3.62 70 - Normal
05/05/2026 04 PM PDT 3.62 70 0 Normal
05/05/2026 05 PM PDT 3.63 71 + Normal
05/05/2026 06 PM PDT 3.63 71 0 Normal
05/05/2026 07 PM PDT 3.65 72 + Normal
05/05/2026 08 PM PDT 3.67 74 + Normal
05/05/2026 09 PM PDT 3.70 76 + Normal
05/05/2026 10 PM PDT 3.72 78 + Normal
05/05/2026 11 PM PDT 3.77 82 + Normal
05/06/2026 12 AM PDT 3.81 85 + Normal
05/06/2026 01 AM PDT 3.86 90 + Normal
05/06/2026 02 AM PDT 3.89 92 + Normal
05/06/2026 03 AM PDT 3.93 96 + Normal
05/06/2026 04 AM PDT 3.99 102 + Normal
05/06/2026 05 AM PDT 4.02 104 + Normal
05/06/2026 06 AM PDT 4.03 105 + Normal
05/06/2026 07 AM PDT 4.04 106 + Normal
#
# FORECAST
#
# Date & Time (Local) Stage (Feet) Flow (cfs) Trend Forecast Status
# ---------------------------------------------------------------------------------
05/06/2026 08 AM PDT 4.04 106 Normal
05/06/2026 09 AM PDT 4.05 107 + Normal
05/06/2026 10 AM PDT 4.06 108 + Normal
05/06/2026 11 AM PDT 4.06 108 0 Normal
05/06/2026 12 PM PDT 4.07 109 + Normal
05/06/2026 01 PM PDT 4.07 109 0 Normal
05/06/2026 02 PM PDT 4.08 110 + Normal
05/06/2026 03 PM PDT 4.08 110 0 Normal
05/06/2026 04 PM PDT 4.09 111 + Normal
05/06/2026 05 PM PDT 4.10 112 + Normal
05/06/2026 06 PM PDT 4.10 112 0 Normal
05/06/2026 07 PM PDT 4.10 112 0 Normal
05/06/2026 08 PM PDT 4.11 113 + Normal
05/06/2026 09 PM PDT 4.11 113 0 Normal
05/06/2026 10 PM PDT 4.12 114 + Normal
05/06/2026 11 PM PDT 4.12 114 0 Normal
05/07/2026 12 AM PDT 4.13 115 + Normal
05/07/2026 01 AM PDT 4.13 115 0 Normal
05/07/2026 02 AM PDT 4.13 115 0 Normal
05/07/2026 03 AM PDT 4.14 116 + Normal
05/07/2026 04 AM PDT 4.14 116 0 Normal
05/07/2026 05 AM PDT 4.15 117 + Normal
05/07/2026 06 AM PDT 4.16 118 + Normal
05/07/2026 07 AM PDT 4.17 119 + Normal
05/07/2026 08 AM PDT 4.18 120 + Normal
05/07/2026 09 AM PDT 4.20 122 + Normal
05/07/2026 10 AM PDT 4.21 123 + Normal
05/07/2026 11 AM PDT 4.22 124 + Normal
05/07/2026 12 PM PDT 4.23 125 + Normal
05/07/2026 01 PM PDT 4.24 126 + Normal
05/07/2026 02 PM PDT 4.26 128 + Normal
05/07/2026 03 PM PDT 4.27 129 + Normal
05/07/2026 04 PM PDT 4.28 130 + Normal
05/07/2026 05 PM PDT 4.29 131 + Normal
05/07/2026 06 PM PDT 4.30 132 + Normal
05/07/2026 07 PM PDT 4.31 134 + Normal
05/07/2026 08 PM PDT 4.32 135 + Normal
05/07/2026 09 PM PDT 4.33 136 + Normal
05/07/2026 10 PM PDT 4.33 136 0 Normal
05/07/2026 11 PM PDT 4.34 137 + Normal
05/08/2026 12 AM PDT 4.35 138 + Normal
05/08/2026 01 AM PDT 4.35 138 0 Normal
05/08/2026 02 AM PDT 4.36 139 + Normal
05/08/2026 03 AM PDT 4.36 139 0 Normal
05/08/2026 04 AM PDT 4.37 140 + Normal
05/08/2026 05 AM PDT 4.37 140 0 Normal
05/08/2026 06 AM PDT 4.37 140 0 Normal
05/08/2026 07 AM PDT 4.37 140 0 Normal
05/08/2026 08 AM PDT 4.37 140 0 Normal
05/08/2026 09 AM PDT 4.38 141 + Normal
05/08/2026 10 AM PDT 4.38 141 0 Normal
05/08/2026 11 AM PDT 4.38 141 0 Normal
05/08/2026 12 PM PDT 4.38 141 0 Normal
05/08/2026 01 PM PDT 4.38 141 0 Normal
05/08/2026 02 PM PDT 4.38 141 0 Normal
05/08/2026 03 PM PDT 4.39 142 + Normal
05/08/2026 04 PM PDT 4.39 142 0 Normal
05/08/2026 05 PM PDT 4.39 142 0 Normal
05/08/2026 06 PM PDT 4.39 142 0 Normal
05/08/2026 07 PM PDT 4.39 142 0 Normal
05/08/2026 08 PM PDT 4.40 143 + Normal
05/08/2026 09 PM PDT 4.40 143 0 Normal
05/08/2026 10 PM PDT 4.40 143 0 Normal
05/08/2026 11 PM PDT 4.40 143 0 Normal
05/09/2026 12 AM PDT 4.40 143 0 Normal
05/09/2026 01 AM PDT 4.40 143 0 Normal
05/09/2026 02 AM PDT 4.40 143 0 Normal
05/09/2026 03 AM PDT 4.40 143 0 Normal
05/09/2026 04 AM PDT 4.40 143 0 Normal
05/09/2026 05 AM PDT 4.40 143 0 Normal
05/09/2026 06 AM PDT 4.39 142 - Normal
05/09/2026 07 AM PDT 4.39 142 0 Normal
05/09/2026 08 AM PDT 4.39 142 0 Normal
05/09/2026 09 AM PDT 4.38 141 - Normal
05/09/2026 10 AM PDT 4.38 141 0 Normal
05/09/2026 11 AM PDT 4.38 141 0 Normal
05/09/2026 12 PM PDT 4.38 141 0 Normal
05/09/2026 01 PM PDT 4.38 141 0 Normal
05/09/2026 02 PM PDT 4.38 141 0 Normal
05/09/2026 03 PM PDT 4.38 141 0 Normal
05/09/2026 04 PM PDT 4.38 141 0 Normal
05/09/2026 05 PM PDT 4.38 141 0 Normal
05/09/2026 06 PM PDT 4.38 141 0 Normal
05/09/2026 07 PM PDT 4.38 141 0 Normal
05/09/2026 08 PM PDT 4.38 141 0 Normal
05/09/2026 09 PM PDT 4.38 141 0 Normal
05/09/2026 10 PM PDT 4.39 142 + Normal
05/09/2026 11 PM PDT 4.39 142 0 Normal
05/10/2026 12 AM PDT 4.39 142 0 Normal
05/10/2026 01 AM PDT 4.39 142 0 Normal
05/10/2026 02 AM PDT 4.39 142 0 Normal
05/10/2026 03 AM PDT 4.39 142 0 Normal
05/10/2026 04 AM PDT 4.39 142 0 Normal
05/10/2026 05 AM PDT 4.39 142 0 Normal
05/10/2026 06 AM PDT 4.39 142 0 Normal
05/10/2026 07 AM PDT 4.39 142 0 Normal
05/10/2026 08 AM PDT 4.39 142 0 Normal
05/10/2026 09 AM PDT 4.39 142 0 Normal
05/10/2026 10 AM PDT 4.39 142 0 Normal
05/10/2026 11 AM PDT 4.38 141 - Normal
05/10/2026 12 PM PDT 4.38 141 0 Normal
05/10/2026 01 PM PDT 4.39 142 + Normal
05/10/2026 02 PM PDT 4.39 142 0 Normal
05/10/2026 03 PM PDT 4.39 142 0 Normal
05/10/2026 04 PM PDT 4.39 142 0 Normal
05/10/2026 05 PM PDT 4.39 142 0 Normal
05/10/2026 06 PM PDT 4.39 142 0 Normal
05/10/2026 07 PM PDT 4.40 143 + Normal
05/10/2026 08 PM PDT 4.40 143 0 Normal
05/10/2026 09 PM PDT 4.41 144 + Normal
05/10/2026 10 PM PDT 4.41 144 0 Normal
05/10/2026 11 PM PDT 4.41 144 0 Normal
05/11/2026 12 AM PDT 4.41 144 0 Normal
05/11/2026 01 AM PDT 4.42 146 + Normal
05/11/2026 02 AM PDT 4.42 146 0 Normal
05/11/2026 03 AM PDT 4.42 146 0 Normal
05/11/2026 04 AM PDT 4.42 146 0 Normal
05/11/2026 05 AM PDT 4.42 146 0 Normal
#
# NOTE 1: Stages are rounded to the nearest hundredth (.01) of a foot.
# NOTE 2: Flows are rounded to the nearest (1) cfs.
# NOTE 3: Trends are determined using hourly change in unrounded stage and flow.
# NOTE 4: Maximum Values are determined using unrounded stage and flow.
|